Regional Weather Roundup
Issued by NWS

Home | Current Version | Previous Version | Graphics & Text | Print | Product List | Glossary On
Versions: 1 2 3 4 5 6 7 8 9 10 11 12 13 14 15 16 17 18 19 20 21 22 23 24 25 26 27 28 29 30 31 32 33 34 35 36 37 38 39 40 41 42 43 44 45 46 47 48 49 50
000
ASUS43 KDMX 220501
RWRIA

WEATHER ROUNDUP FOR IOWA
NATIONAL WEATHER SERVICE DES MOINES IA
1200 AM CDT MON MAY 22 2017

NOTE: "FAIR" INDICATES FEW OR NO CLOUDS BELOW 12,000 FEET WITH NO
SIGNIFICANT WEATHER AND/OR OBSTRUCTIONS TO VISIBILITY.

* - THESE STATIONS ARE NOT NWS STATIONS...THUS NOT UNDER NWS
QUALITY CONTROL.  THEY ALSO DO NOT REPORT WEATHER SUCH
AS PRECIPITATION OR FOG.

IAZ001>003-012>014-020>022-031>034-043>046-220600-
   NORTHWEST IOWA

CITY           SKY/WX    TMP DP  RH WIND       PRES   REMARKS
CARROLL *      MOCLDY    50  45  81 SW13      30.03F
CHEROKEE *     CLEAR     42  41  99 S3        30.00F
DENISON *      CLEAR     50  45  81 SW8       30.06F
LE MARS *      CLEAR     50  45  81 S9        30.00F
ORANGE CITY *  CLEAR     48  45  87 SW12      29.99S
SHELDON *      CLEAR     46  43  87 S6          N/A
SIOUX CITY     CLEAR     49  46  90 S6        30.02F
SPENCER        CLEAR     45  42  89 S8        29.99F
STORM LAKE *   CLEAR     45  41  87 S8        30.01F
$$

IAZ055>058-069>071-079>083-090>094-220600-
   SOUTHWEST IOWA

CITY           SKY/WX    TMP DP  RH WIND       PRES   REMARKS
ATLANTIC *     CLEAR     48  46  93 S3        30.08F
AUDUBON *      CLEAR     43  39  87 CALM      30.07F
CLARINDA *     CLEAR     48  48 100 CALM      30.12F
COUNCIL BLFS * CLEAR     52  46  82 S8        30.08F
CRESTON *      CLEAR     48  45  87 S8        30.10F
HARLAN  *      CLEAR     46  46 100 S5        30.10F
LAMONI         CLEAR     52  45  77 SW3       30.10F
RED OAK *      CLEAR     50  46  87 CALM      30.10F
SHENANDOAH *   CLEAR     52  46  82 CALM      30.10F
$$

IAZ047>049-059>061-072>074-084-220600-
   CENTRAL IOWA

CITY           SKY/WX    TMP DP  RH WIND       PRES   REMARKS
AMES           CLEAR     47  43  86 S7        30.05F
ANKENY *       CLEAR     45  43  93 S3        30.08F
BOONE *        CLEAR     46  45  93 SW7       30.04F
DES MOINES     CLEAR     48  43  82 S7        30.07F
GRINNELL*      CLEAR     46  42  86 SW9       30.08F
MARSHALLTOWN   CLEAR     46  43  89 SW9       30.04F
NEWTON *       CLEAR     46  43  87 SW8       30.06F
PELLA *        CLEAR     48  43  82 SW5       30.09F
PERRY *          N/A     48  45  89 S9        30.06F
$$

IAZ004>006-015-016-023>025-035-036-220600-
   NORTH CENTRAL IOWA

CITY           SKY/WX    TMP DP  RH WIND       PRES   REMARKS
ALGONA *       CLEAR     45  43  93 S8        30.00F
CLARION *      CLEAR     45  45 100 SW10      30.01F
ESTHERVILLE    CLEAR     43  42  97 SW5       29.98F
FORT DODGE *   CLEAR     46  43  87 CALM      30.03F
MASON CITY     CLEAR     46  41  82 SW9       30.01F
FOREST CITY *    N/A     43  36  75 SW6       30.00F
WEBSTER CITY * CLEAR     45  43  93 S8        30.01F
IOWA FALLS *     N/A     46  42  88 SW9       30.04F
$$

IAZ007>011-017>019-026>030-037>042-050>054-066-220600-
   NORTHEAST IOWA

CITY           SKY/WX    TMP DP  RH WIND       PRES   REMARKS
CEDAR RAPIDS   CLEAR     47  44  90 SW12      30.04F
CHARLES CITY * CLEAR     46  43  87 SW9       30.00F
CLINTON *      CLOUDY    49  44  83 W12       30.04F
DECORAH *      CLEAR     45  41  87 SW7G13    29.97S
DUBUQUE        PTCLDY    46  42  86 W12       30.01F
MONTICELLO *   CLEAR     48  43  81 W8        30.03F
OELWEIN *      CLEAR     45  43  93 SW9       30.02S
WATERLOO       CLEAR     46  42  86 SW10      30.02S
$$

IAZ064-065-067-068-078-220600-
   EAST CENTRAL IOWA

CITY           SKY/WX    TMP DP  RH WIND       PRES   REMARKS
DAVENPORT      CLEAR     50  43  77 W13       30.05F
IOWA CITY      CLEAR     50  43  77 W9        30.08S
MT. PLEASANT * CLEAR     47  43  88 SW7       30.09F
MUSCATINE *    CLEAR     50  43  76 W10       30.07F
QUAD CITIES    CLEAR     51  42  71 SW9       30.05F
$$

IAZ062-063-075>077-085>089-095>099-220600-
   SOUTHEAST IOWA

CITY           SKY/WX    TMP DP  RH WIND       PRES   REMARKS
BURLINGTON     CLEAR     50  46  86 SW7       30.08F
FAIRFIELD *    CLEAR     48  43  81 W6        30.08F
FORT MADISON * CLEAR     52  45  76 SW5       30.10F
KEOKUK *       CLEAR     46  46 100 CALM      30.10F
OSKALOOSA *      N/A     46  43  89 SW5       30.09F
OTTUMWA        CLEAR     45  44  97 W5        30.09F
WASHINGTON *   CLEAR     48  45  87 W8        30.08F
$$

ABBREVIATIONS USED IN REMARKS
   TC - TEMPERATURES IN CELSIUS
  WCI - WIND CHILL INDEX
   HX - HEAT INDEX
  VSB - VISIBILITY
$$





USA.gov is the U.S. government's official web portal to all federal, state and local government web resources and services.